Погода в Пагануре

Россия / Республика Марий Эл     56°38′35″N   48°05′12″E
темп.,
°C
ветер,
м/с
пор.,
м/с
влажн.,
%
обл.,
%
осадки,
мм/ч
давл.,
гПа
погр.,
м
8 марта, пн
пн800:00−6ю61294100 1.1 994744
03:00−6ю4996100 2.1 991482
06:00−6ююз2597100 0.9 989186
09:00−6з71187100 1.8 992752
12:00−5зюз578199 0.0 995770
15:00−4зюз478275 0.1 997870
18:00−8зюз2393100 0.1 99853
21:00−11з339690 0.1 100065
9 марта, вт
вт900:00−13зсз359645 0.0 100297
03:00−16зсз239859 0.1 100536
06:00−17зсз229892 0.1 100721
09:00−13ссз239395 0.1 1008256
12:00−11с2388100 0.1 1010475
15:00−11с3590100 0.3 1010510
18:00−13с3795100 0.1 1011253
21:00−15с4109396 0.2 1013374
10 марта, ср
ср1000:00−18с5109597 0.1 1014315
03:00−23с5109698 0.1 1015273
06:00−26с5119481 0.0 1017274
09:00−25с5109272 0.0 1019351
12:00−21с598941 0.0 1020447
15:00−18с598421 0.0 1020598
18:00−21ссз37910 0.0 1021124
21:00−22ссз37940 0.0 1023149
11 марта, чт
чт1100:00−24сз36970 0.0 1023102
03:00−24зсз37980 0.0 1024120
06:00−22зсз4109430 0.0 1024229
09:00−18зсз5109565 0.1 1023379
12:00−12сз5989100 0.2 1023510
15:00−8сз5108283 0.2 1024721
18:00−10зсз5128750 0.0 1025332
21:00−12сз4119043 0.0 1026281
12 марта, пт
пт1200:00−14зсз49923 0.0 1027171
03:00−17зсз36941 0.0 1028101
06:00−18з36960 0.0 1029110
09:00−14з47920 0.0 1030291
12:00−10з488437 0.0 1030603
15:00−8з588469 0.0 1029755
18:00−11зюз399399 0.0 1029230
21:00−15зюз389694 0.0 1031200